CAPE
0 0 0 0 0 0 0 0 0 0 0 0 0 0 0 0 0 0 0 0 0 0
0 0 0 0 0 0 0 0 0 0 0 0 0 0 0 0 0 0 0 0 0 0
0 0 0 0 0 0 0 0 0 0 0 0 0 0 0 0 0 0 0 0 0 0
0 0 0 0 0 0 0 0 0 0 0 0 0 0 0 0 0 0 0 0 0 0
0 0 1 0 1 0 0 0 0 0 0 0 0 0 0 0 0 0 0 0 0 0
9 7 8 5 2 0 0 0 0 0 0 0 0 0 0 0 1 1 1 0 0 0
2 2 2 1 1 0 0 0 0 0 0 1 1 1 1 1 0 0 0 0 0 0
3 2 2 1 0 0 0 0 0 0 0 0 0 1 1 0 0 0 0 0 0 0
1 1 0 1 0 0 0 0 0 1 1 2 2 1 0 0 0 0 0 0 0 0
0 0 0 0 0 0 1 1 1 1 1 1 2 0 0 1 2 1 1 1 0 0
3 3 3 2 2 2 3 2 2 1 1 0 0 1 1 0 0 0 0 0 0 0
3 2 2 2 2 1 1 1 1 1 1 2 0 0 0 0 0 0 0 0 0 0
0 0 0 0 1 1 0 1 0 0 0 0 0 0 0 0 0 0 0 0 0 0
0 0 0 0 0 0 0 0 0 0 0 0 0 0 0 0 0 0 0 0 0 0
CIN
0 0 0 0 0 0 0 0 0 0 0 0 0 0 0 0 0 0 0 0 0 0
0 0 0 0 0 0 0 0 0 0 0 0 0 0 0 0 0 0 0 0 0 0
0 0 0 0 0 0 0 0 0 0 0 0 0 0 0 0 0 0 0 0 0 0
0 0 0 0 0 0 0 0 0 0 0 0 0 0 0 0 0 0 0 0 0 0
0 0 0 0 0 0 0 0 0 0 0 0 0 0 0 0 0 0 0 0 0 0
0 0 0 0 0 0 0 0 0 0 0 0 0 0 0 0 0 0 0 0 0 0
0 0 0 0 0 0 0 0 0 0 0 0 0 0 0 0 0 0 0 0 0 0
0 0 0 0 0 0 0 0 0 0 0 0 0 0 0 0 0 0 0 0 0 0
0 0 0 0 0 0 0 0 0 0 0 0 0 0 0 0 0 0 0 0 0 0
0 0 0 0 0 0 0 0 0 0 0 0 0 0 0 0 0 0 0 0 0 0
0 0 0 0 0 0 0 0 0 0 0 0 0 0 0 0 0 0 0 0 0 0
0 0 0 0 0 0 0 0 0 0 0 0 0 0 0 0 0 0 0 0 0 0
0 0 0 0 0 0 0 0 0 0 0 0 0 0 0 0 0 0 0 0 0 0
0 0 0 0 0 0 0 0 0 0 0 0 0 0 0 0 0 0 0 0 0 0
Wind_Speed
22 20 20 18 18 20 22 23 23 23 24 23 20 19 19 20 20 20 21 21 22 22
22 22 20 19 18 18 19 21 23 23 24 21 19 19 19 20 20 20 21 21 20 21
24 23 21 17 18 17 14 16 19 21 21 19 19 19 19 20 20 19 19 21 21 22
24 23 22 19 22 20 15 14 17 20 20 20 20 20 20 18 20 20 21 21 23 25
26 28 27 26 23 20 18 16 15 17 18 18 19 19 20 20 20 22 24 21 25 28
22 22 24 23 20 20 19 17 15 16 17 16 16 17 17 22 21 21 23 27 28 26
18 19 21 21 18 17 16 15 15 14 15 15 18 15 17 20 23 25 25 25 26 28
16 17 18 16 16 15 14 15 14 14 14 14 15 20 21 21 23 26 27 27 29 31
16 17 16 17 19 18 16 14 15 16 16 18 19 20 22 22 24 26 28 31 33 35
16 17 18 20 19 18 17 18 18 18 18 19 22 23 25 26 26 28 30 32 34 34
17 18 20 22 21 21 21 22 21 21 21 22 25 27 28 28 29 30 31 33 34 35
22 21 22 23 23 23 22 22 22 23 23 25 29 33 34 32 32 33 34 34 35 38
24 25 24 24 24 23 23 23 25 27 29 30 32 35 36 35 34 36 37 37 39 42
26 25 24 25 26 26 27 27 28 29 30 31 33 35 38 39 38 40 41 41 44 45
Wind_Direction
255 256 259 258 249 257 261 262 262 259 263 265 267 271 273 275 276 277 281 285 289 293
258 260 259 257 257 262 264 265 260 260 263 265 268 274 277 277 278 282 284 287 290 294
262 261 265 253 254 257 261 256 258 262 262 265 270 275 279 281 285 286 289 293 292 297
267 268 265 262 266 269 267 258 259 261 263 267 271 278 282 281 290 289 294 296 298 301
277 278 277 277 275 282 279 280 278 275 274 272 275 282 283 287 290 291 296 298 300 303
290 289 288 289 298 294 289 289 295 292 291 291 293 295 296 299 299 306 304 301 306 307
305 307 306 301 303 301 308 301 302 303 300 300 299 310 309 312 311 307 308 311 315 312
322 326 324 321 324 327 330 323 319 316 319 319 315 315 318 319 315 313 313 317 318 315
350 349 347 337 346 346 349 341 338 331 330 325 329 325 326 325 321 320 321 318 316 315
8 9 2 9 13 6 8 11 7 355 352 349 341 336 334 334 332 328 325 324 325 327
21 16 14 19 17 16 15 17 10 5 3 358 352 346 343 342 342 340 340 337 336 335
24 22 22 22 18 18 18 13 5 357 351 348 346 349 348 346 345 345 341 342 338 334
24 26 21 19 13 10 6 5 4 2 2 357 354 352 352 350 347 341 339 337 335 333
21 19 14 14 11 8 7 10 4 4 5 2 356 352 349 346 343 339 336 335 333 333